Estación de C. Llollinco

Ultimos registro cada 15 minutos 25
Estación Fecha / Hora Temperatura Humedad Lluvia Velocidad Dirección Radiación Presion
25 C. Llollinco 09-05-2026 06:00 0,6 98,1 0 0,4 210 0 0
24 C. Llollinco 09-05-2026 05:45 0,8 97,8 0 0 0 0 0
23 C. Llollinco 09-05-2026 05:30 1,1 97,7 0 0,2 194 0 0
22 C. Llollinco 09-05-2026 05:15 0,7 99,4 0 0,2 222 0 0
21 C. Llollinco 09-05-2026 05:00 1,1 97,5 0 0 196 0 0
20 C. Llollinco 09-05-2026 04:45 1,3 97,7 0 0,1 42 0 0
19 C. Llollinco 09-05-2026 04:30 0,7 98,4 0 0,4 14 0 0
18 C. Llollinco 09-05-2026 04:15 0,9 97,9 0 0,1 211 0 0
17 C. Llollinco 09-05-2026 04:00 1,2 97,4 0 0,2 213 0 0
16 C. Llollinco 09-05-2026 03:45 1,2 97,7 0 0 0 0 0
15 C. Llollinco 09-05-2026 03:30 1,5 97,4 0 0,3 181 0 0
14 C. Llollinco 09-05-2026 03:15 1,3 97,9 0 0,3 39 0 0
13 C. Llollinco 09-05-2026 03:00 1,5 97,1 0 0,1 13 0 0
12 C. Llollinco 09-05-2026 02:45 1,7 97,4 0 0 176 0 0
11 C. Llollinco 09-05-2026 02:30 1,8 97,6 0 0,1 207 0 0
10 C. Llollinco 09-05-2026 02:15 2 97,3 0 0,2 217 0 0
9 C. Llollinco 09-05-2026 02:00 2 97,2 0 0,1 311 0 0
8 C. Llollinco 09-05-2026 01:45 2 96,9 0 0,2 190 0 0
7 C. Llollinco 09-05-2026 01:30 2,1 96,8 0 0 0 0 0
6 C. Llollinco 09-05-2026 01:15 2,4 97 0 0 187 0 0
5 C. Llollinco 09-05-2026 01:00 2,5 96,8 0 0 0 0 0
4 C. Llollinco 09-05-2026 00:45 2,8 96,6 0 0 111 0 0
3 C. Llollinco 09-05-2026 00:30 2,8 96,7 0 0,1 226 0 0
2 C. Llollinco 09-05-2026 00:15 3,1 96,1 0 0 0 0 0
1 C. Llollinco 09-05-2026 00:00 3,4 96 0 0 0 0 0